Simultaneous Nadir Overpasses (SNOs) Predictions

Prediction of SNOs over PacNW region [( 10.00, 139.50) to ( 22.70, 165.60)] between AQUA and NPP Satellites:

Table of predicted SNOs over PacNW region for the next 30.0 days since TLE Epoch: 2/5/2022
Index Date (AQUA) Time (AQUA) AQUA Lat,Lon Date (NPP) Time (NPP) NPP Lat,Lon Distance(km) Time Diff (sec)
1 02/07/2022 15:59:51 22.59, 147.62 02/07/2022 16:01:54 23.28, 144.63 315.27 123
2 02/15/2022 15:10:11 22.61, 160.06 02/15/2022 15:11:12 23.23, 157.29 292.05 61
3 02/18/2022 03:31:56 22.65, 147.75 02/18/2022 03:28:27 26.09, 144.94 477.69 209
4 02/23/2022 15:59:20 22.61, 147.80 02/23/2022 16:01:56 23.35, 144.62 335.50 156
5 03/03/2022 15:09:32 22.59, 160.26 03/03/2022 15:11:13 23.24, 157.27 315.26 101
